Regional Weather Roundup
Issued by NWS Austin/San Antonio, TX

Home | Current Version | Previous Version | Text Only | Print | Product List | Glossary On
Versions: 1 2 3 4 5 6 7 8 9 10 11 12 13 14 15 16 17 18 19 20 21 22 23 24 25 26 27 28 29 30 31 32 33 34 35 36 37 38 39 40 41 42 43 44 45 46 47 48 49 50
221
ASUS44 KEWX 210410
RWREWX
SOUTH TEXAS REGIONAL WEATHER ROUNDUP
NATIONAL WEATHER SERVICE AUSTIN/SAN ANTONIO TX
1100 PM CDT TUE AUG 20 2019

NOTE: "FAIR" INDICATED FEW OR NO CLOUDS BELOW 12,000 FEET WITH NO
SIGNIFICANT WEATHER AND/OR OBSTRUCTIONS TO VISIBILITY.

* - THESE STATIONS ARE NOT NWS OR FAA STATIONS...AND ARE NOT SUBJECT
    TO NWS AND FAA QUALITY CONTROL.

TXZ171-172-183>190-210500-
TEXAS HILL COUNTRY AND EDWARDS PLATEAU

CITY           SKY/WX    TMP DP  RH WIND       PRES   REMARKS
JUNCTION       FAIR      86  62  44 S6        30.04R
*LLANO         FAIR      88  64  45 SE7       30.04R
BURNET         FAIR      86  67  52 S8        30.04R
*HORSESHOE BAY FAIR      84  66  54 S9        30.02R
*KERRVILLE     FAIR      82  61  49 CALM      30.04R
*FREDERICKSBRG FAIR      82  61  49 SE5       30.05R
*ROCKSPRINGS   FAIR      81  59  47 E3        30.11R
*BOERNE        FAIR      82  61  47 S8        30.05R
*CASTROVILLE   FAIR      85  63  46 S13G21    30.02R
HONDO          FAIR      86  68  54 SE20      30.00R
*UVALDE        FAIR      86  64  48 SE10G17   29.99R
DEL RIO        FAIR      88  60  38 E9        29.94R
LAUGHLIN AFB   FAIR      87  61  41 E9        29.95R
SPOFFORD       FAIR      86  58  38 E9        29.90R
*EAGLE PASS    CLEAR     88  57  35 E9        29.95R
CARRIZO SPRGS  FAIR      88  70  55 SE13G22   29.95R HX  92
$$

TXZ173-191>194-202-209-217>225-228-210500-
CENTRAL AND SOUTH CENTRAL TEXAS

CITY           SKY/WX    TMP DP  RH WIND       PRES   REMARKS
GEORGETOWN     FAIR      86  70  58 S8        30.02R HX  90
AUSTIN/BERGSTM FAIR      84  70  62 S6        29.99R
AUSTIN/MABRY   FAIR      87  68  52 VRB7      30.01R HX  90
*AUSTIN/EXEC   FAIR      82  70  65 S3        30.01R
*LAGO VISTA    FAIR      83  69  62 SE9       30.03S
SAN MARCOS     FAIR      84  71  65 S8        30.01R
NEW BRAUNFELS  FAIR      85  70  60 S13       29.99R
RANDOLPH AFB   FAIR      84  69  60 S15       30.01R
SEGUIN         FAIR      83  70  66 S15       30.04S
KELLY FIELD    FAIR      86  68  54 SE15      29.99R
SAN ANTONIO    FAIR      85  69  58 SE12      30.01R
STINSON FIELD  FAIR      86  69  56 SE9       29.98R HX  90
PLEASANTON     FAIR      83  69  61 SE10G16   30.00R
*LA GRANGE     FAIR      83  73  70 S5        29.98R
*GIDDINGS      FAIR      86  75  69 CALM      30.01R HX  95
*GONZALES      FAIR      84  73  69 S9        30.00R HX  90
$$

TXZ163>164-176>182-195>201-210>213-226-227-235-210500-
SOUTHEAST TEXAS

CITY           SKY/WX    TMP DP  RH WIND       PRES   REMARKS
COLLEGE STN    FAIR      82  74  76 SE5       30.01R
*BRYAN         FAIR      82  75  79 SE5       30.02S
*CALDWELL      FAIR      82  71  70 SE5       30.01R
*CROCKETT      FAIR      81  73  78 CALM      30.05F
*BRENHAM       FAIR      82  73  76 SE3       30.01R
HUNTSVILLE     FAIR      80  73  79 CALM      30.02R
CONROE         FAIR      77  72  84 CALM      30.02R
HOUSTON BUSH   MOCLDY    83  74  74 S6        30.02R
HOUSTON HOBBY  MOCLDY    82  75  79 SE5       30.01R
*HOUSTON SW AP FAIR      78  77  96 CALM      30.03R
PEARLAND       FAIR      81  76  84 CALM      30.03R
HOUSTON HOOKS  FAIR      82  72  71 CALM      30.02R
ELLINGTON FLD  MOCLDY    81  75  83 SE3       30.00R
SUGAR LAND     FAIR      80  78  94 SE6       30.01R
*HOUSTON EXEC  FAIR      81  75  83 S6        30.03R
*CLEVELAND MUN FAIR      78  78 100 CALM      30.03R
*WHARTON       FAIR      78  73  86 SE3       30.01R
*COLUMBUS      FAIR      80  72  76 S5        30.02R
*EAGLE LAKE    FAIR      81  76  86 S3        30.00
$$

TXZ214>216-236>238-210500-
THE UPPER TEXAS COAST

CITY           SKY/WX    TMP DP  RH WIND       PRES   REMARKS
*ORANGE        FAIR      79  79 100 CALM      30.05R
PORT ARTHUR    FAIR      79  76  90 CALM      30.03R
GALVESTON      FAIR      85  78  80 S9        30.02R HX  96
ANGLETON       FAIR      80  75  84 SE5       30.01R
*BAY CITY      FAIR      81  77  89 CALM      30.01R
PALACIOS       FAIR      86  75  69 S10       30.00R HX  95
$$

TXZ229>234-239>247-210500-
TEXAS COASTAL BEND AND RIO GRANDE PLAINS

CITY           SKY/WX    TMP DP  RH WIND       PRES   REMARKS
VICTORIA       FAIR      82  74  76 SE10      30.00R
*BEEVILLE      NOT AVBL
ROCKPORT       FAIR      84  75  74 SE15G22   29.99S HX  92
*PORT ARANSAS  FAIR      85  77  77 SE13      30.01S HX  95
*PORT LAVACA   FAIR      82  77  85 CALM      30.00S
*INGLESIDE     NOT AVBL
CORPUS CHRISTI FAIR      84  76  76 SE10      30.00R HX  93
CORPUS NAS     FAIR      84  78  82 SE13      29.99R HX  95
*ROBSTOWN      FAIR      83  75  76 SE10      30.00S HX  91
ALICE          FAIR      83  75  77 SE9       30.00R HX  90
KINGSVILLE NAS FAIR      83  76  79 SE8       29.99S HX  91
COTULLA        FAIR      87  68  52 SE16G25   29.98R HX  90
LAREDO         FAIR      88  70  55 SE22      29.96R HX  93
$$

TXZ248>255-210500-
DEEP SOUTH TEXAS

CITY           SKY/WX    TMP DP  RH WIND       PRES   REMARKS
BROWNSVILLE    FAIR      84  78  82 SE7       29.98S HX  95
PORT ISABEL    FAIR      83  76  79 SE12      29.98R HX  91
HARLINGEN      FAIR      83  75  77 SE10      29.98R HX  90
*HEBBRONVILLE  FAIR      83  69  63 SE9       30.02R
MCALLEN        FAIR      85  73  67 SE15      29.98R HX  91
*WESLACO       MOCLDY    83  75  74 SE6       29.97  HX  91
FALFURRIAS     FAIR      84  74  70 SE6       29.99R HX  91
EDINBURG       FAIR      85  74  70 SE9       29.99R HX  92
*ZAPATA        FAIR      88  67  50 SE15G21   29.98R HX  91
$$

TXZ213>215-236>238-242>244-246-247-251-254-255-210500-
CMAN STATIONS

STATION/POSITION TIME  TEMP    WIND        PRES    WAVE
                       AIR SEA DIR/SP/G            HT/PER
                 (UTC) (F)     (DEG/KT/KT) (MB)    (FT/S)
SABINE PASS      0330   82 89  200/  3/  4 1018.6
NORTH JETTY/GLS  0330          170/ 10/ 12   N/A
EAGLE POINT      0330   85 88  170/  9/ 10 1015.4
MORGANS POINT    0330   84 88  180/  7/ 10 1016.2
PORT O`CONNOR    0330   85 88  150/ 15/ 18 1015.1
PORT ARANSAS     0400   84 87  130/ 14/ 16 1015.5
MALAQUITE BEACH  0330   84 86  110/ 13/ 14 1015.4
BAFFIN BAY       0330   84 89  100/ 10/ 15 1015.6
PORT ISABEL      0330   83 86  120/  9/ 10 1015.7
$$




USA.gov is the U.S. government's official web portal to all federal, state and local government web resources and services.